Tracking 29511 objects as of 18-Sep-2024
HD Live streaming from Space Station
objects crossing your sky now

CZ-4 R/B

Track CZ-4 R/B now!
10-day predictions
CZ-4 R/B is classified as:


NORAD ID: 29507
Int'l Code: 2006-046C
Perigee: 519.8 km
Apogee: 571.9 km
Inclination: 97.6 °
Period: 95.4 minutes
Semi major axis: 6916 km
RCS: 4.43 m2 (large)
Launch date: October 23, 2006
Source: People's Republic of China (PRC)
Launch site: Taiyaun Space Center, China (TSC)

Note: This is a ROCKET BODY
Your satellite tracking list
Your tracking list is empty




NASA's NSSDC Master Catalog

Two Line Element Set (TLE):
1 29507U 06046C   24261.70160939  .00024715  00000-0  15300-2 0  9999
2 29507  97.6359 297.2597 0037695 323.2793  36.5853 15.09184825978663
Source of the keplerian elements: AFSPC